Location: Kikino
(54.4440°N, 112.0940°W)
Time: 17:34:42
(UTC+00:00)

A-11 Canister half - Pass Details

Date: 19 May 2024
Orbit: 1525 x 1683 km, 47.3° (Epoch: 12 June)

Event Time Altitude Azimuth Distance (km) Brightness Sun altitude
Rises 08:07:27 0° 256° (WSW) 4,736 11.3 -15.1°
Reaches altitude 10° 08:10:32 10° 253° (WSW) 3,772 10.8 -15.0°
Maximum altitude 08:19:50 58° 178° (S) 1,841 9.1 -14.7°
Drops below altitude 10° 08:29:27 10° 103° (ESE) 3,895 11.2 -14.4°
Sets 08:32:42 0° 100° (E) 4,899 11.7 -14.2°
